User: anonymous   Login
Location: Arbon
(43.0005°N, 0.7472°E)
Time: 11:13:36
(UTC+00:00)
Language:

Cosmos 2228 - Orbit

View from above orbital plane
View from above orbital plane
View from above satellite
View from above satellite

Ground track
Ground track

The orbit data is extracted from the following two-line orbital elements,

1 22286U 92094A   20299.95411647 +.00000276 +00000-0 +27096-4 0  9996
2 22286 082.5169 296.7300 0021407 012.1102 348.0626 14.88178540483854
Epoch (UTC): 25 October 2020 22:53:55
Eccentricity: 0.0021407
inclination: 82.5169°
perigee height: 588 km
apogee height: 618 km
right ascension of ascending node: 296.7300°
argument of perigee: 12.1102°
revolutions per day: 14.88178540
mean anomaly at epoch: 348.0626°
orbit number at epoch: 48385

The dashed part of the orbit path shows where the satellite is in the earth's shadow,  

DLR